Location: Campestrin
(46.4667°N, 11.7167°E)
Time: 04:58:05
(UTC+00:00)

Cosmos 2333 Rocket - Pass Details

Date: 18 April 2021
Orbit: 838 x 864 km, 70.8° (Epoch: 15 May)

Event Time Altitude Azimuth Distance (km) Brightness Sun altitude
Rises 19:58:07 0° 325° (NW) 3,452 6.8 -17.9°
Reaches altitude 10° 20:00:49 10° 316° (NW) 2,509 5.9 -18.3°
Maximum altitude 20:05:52 33° 255° (WSW) 1,423 3.7 -18.9°
Drops below altitude 10° 20:10:52 10° 194° (SSW) 2,481 4.4 -19.6°
Enters shadow 20:10:56 10° 193° (SSW) 2,504 4.4 -19.6°
